Year,Month,Day,Hour,Minute,Value (Times are PST for temperature in C)
2010,05,20,00,00,9.00
2010,05,20,00,01,9.00
2010,05,20,00,02,9.00
2010,05,20,00,03,9.00
2010,05,20,00,04,9.10
2010,05,20,00,05,9.10
2010,05,20,00,06,9.10
2010,05,20,00,07,9.10
2010,05,20,00,08,9.10
2010,05,20,00,09,9.10
2010,05,20,00,10,9.10
2010,05,20,00,11,9.10
2010,05,20,00,12,9.10
2010,05,20,00,13,9.10
2010,05,20,00,14,9.10
2010,05,20,00,15,9.10
2010,05,20,00,16,9.10
2010,05,20,00,17,9.10
2010,05,20,00,18,9.10
2010,05,20,00,19,9.10
2010,05,20,00,20,9.10
2010,05,20,00,21,9.10
2010,05,20,00,22,9.10
2010,05,20,00,23,9.10
2010,05,20,00,24,9.10
2010,05,20,00,25,9.10
2010,05,20,00,26,9.10
2010,05,20,00,27,9.10
2010,05,20,00,28,9.10
2010,05,20,00,29,9.10
2010,05,20,00,30,9.10
2010,05,20,00,31,9.10
2010,05,20,00,32,9.10
2010,05,20,00,33,9.10
2010,05,20,00,34,9.10
2010,05,20,00,35,9.10
2010,05,20,00,36,9.10
2010,05,20,00,37,9.10
2010,05,20,00,38,9.10
2010,05,20,00,39,9.10
2010,05,20,00,40,9.10
2010,05,20,00,41,9.10
2010,05,20,00,42,9.10
2010,05,20,00,43,9.00
2010,05,20,00,44,9.00
2010,05,20,00,45,9.00
2010,05,20,00,46,9.00
2010,05,20,00,47,9.00
2010,05,20,00,48,8.90
2010,05,20,00,49,8.90
2010,05,20,00,50,8.90
2010,05,20,00,51,8.90
2010,05,20,00,52,8.90
2010,05,20,00,53,8.90
2010,05,20,00,54,8.90
2010,05,20,00,55,8.90
2010,05,20,00,56,8.90
2010,05,20,00,57,8.90
2010,05,20,00,58,8.90
2010,05,20,00,59,8.90
2010,05,20,01,00,8.90
2010,05,20,01,01,8.90
2010,05,20,01,02,8.80
2010,05,20,01,03,8.80
2010,05,20,01,04,8.80
2010,05,20,01,05,8.80
2010,05,20,01,06,8.80
2010,05,20,01,07,8.80
2010,05,20,01,08,8.80
2010,05,20,01,09,8.80
2010,05,20,01,10,8.80
2010,05,20,01,11,8.80
2010,05,20,01,12,8.80
2010,05,20,01,13,8.70
2010,05,20,01,14,8.70
2010,05,20,01,15,8.70
2010,05,20,01,16,8.70
2010,05,20,01,17,8.70
2010,05,20,01,18,8.70
2010,05,20,01,19,8.70
2010,05,20,01,20,8.70
2010,05,20,01,21,8.70
2010,05,20,01,22,8.70
2010,05,20,01,23,8.70
2010,05,20,01,24,8.70
2010,05,20,01,25,8.70
2010,05,20,01,26,8.70
2010,05,20,01,27,8.70
2010,05,20,01,28,8.60
2010,05,20,01,29,8.60
2010,05,20,01,30,8.60
2010,05,20,01,31,8.60
2010,05,20,01,32,8.60
2010,05,20,01,33,8.50
2010,05,20,01,34,8.50
2010,05,20,01,35,8.50
2010,05,20,01,36,8.40
2010,05,20,01,37,8.40
2010,05,20,01,38,8.40
2010,05,20,01,39,8.40
2010,05,20,01,40,8.40
2010,05,20,01,41,8.40
2010,05,20,01,42,8.30
2010,05,20,01,43,8.30
2010,05,20,01,44,8.30
2010,05,20,01,45,8.30
2010,05,20,01,46,8.20
2010,05,20,01,47,8.20
2010,05,20,01,48,8.20
2010,05,20,01,49,8.20
2010,05,20,01,50,8.20
2010,05,20,01,51,8.10
2010,05,20,01,52,8.10
2010,05,20,01,53,8.10
2010,05,20,01,54,8.10
2010,05,20,01,55,8.00
2010,05,20,01,56,8.00
2010,05,20,01,57,8.00
2010,05,20,01,58,7.90
2010,05,20,01,59,7.90
2010,05,20,02,00,7.90
2010,05,20,02,01,7.80
2010,05,20,02,02,7.80
2010,05,20,02,03,7.80
2010,05,20,02,04,7.80
2010,05,20,02,05,7.70
2010,05,20,02,06,7.70
2010,05,20,02,07,7.70
2010,05,20,02,08,7.70
2010,05,20,02,09,7.70
2010,05,20,02,10,7.70
2010,05,20,02,11,7.70
2010,05,20,02,12,7.60
2010,05,20,02,13,7.60
2010,05,20,02,14,7.60
2010,05,20,02,15,7.60
2010,05,20,02,16,7.60
2010,05,20,02,17,7.60
2010,05,20,02,18,7.60
2010,05,20,02,19,7.60
2010,05,20,02,20,7.50
2010,05,20,02,21,7.50
2010,05,20,02,22,7.50
2010,05,20,02,23,7.40
2010,05,20,02,24,7.40
2010,05,20,02,25,7.40
2010,05,20,02,26,7.40
2010,05,20,02,27,7.40
2010,05,20,02,28,7.40
2010,05,20,02,29,7.30
2010,05,20,02,30,7.30
2010,05,20,02,31,7.30
2010,05,20,02,32,7.30
2010,05,20,02,33,7.30
2010,05,20,02,34,7.30
2010,05,20,02,35,7.30
2010,05,20,02,36,7.30
2010,05,20,02,37,7.30
2010,05,20,02,38,7.20
2010,05,20,02,39,7.20
2010,05,20,02,40,7.20
2010,05,20,02,41,7.20
2010,05,20,02,42,7.20
2010,05,20,02,43,7.20
2010,05,20,02,44,7.20
2010,05,20,02,45,7.20
2010,05,20,02,46,7.20
2010,05,20,02,47,7.20
2010,05,20,02,48,7.20
2010,05,20,02,49,7.20
2010,05,20,02,50,7.20
2010,05,20,02,51,7.20
2010,05,20,02,52,7.20
2010,05,20,02,53,7.20
2010,05,20,02,54,7.20
2010,05,20,02,55,7.20
2010,05,20,02,56,7.20
2010,05,20,02,57,7.20
2010,05,20,02,58,7.20
2010,05,20,02,59,7.20
2010,05,20,03,00,7.10
2010,05,20,03,01,7.10
2010,05,20,03,02,7.10
2010,05,20,03,03,7.10
2010,05,20,03,04,7.10
2010,05,20,03,05,7.10
2010,05,20,03,06,7.10
2010,05,20,03,07,7.10
2010,05,20,03,08,7.10
2010,05,20,03,09,7.10
2010,05,20,03,10,7.10
2010,05,20,03,11,7.10
2010,05,20,03,12,7.10
2010,05,20,03,13,7.10
2010,05,20,03,14,7.10
2010,05,20,03,15,7.00
2010,05,20,03,16,7.00
2010,05,20,03,17,7.00
2010,05,20,03,18,7.00
2010,05,20,03,19,7.00
2010,05,20,03,20,7.00
2010,05,20,03,21,6.90
2010,05,20,03,22,6.90
2010,05,20,03,23,7.00
2010,05,20,03,24,6.90
2010,05,20,03,25,6.90
2010,05,20,03,26,6.90
2010,05,20,03,27,6.90
2010,05,20,03,28,6.90
2010,05,20,03,29,6.90
2010,05,20,03,30,6.90
2010,05,20,03,31,6.90
2010,05,20,03,32,6.90
2010,05,20,03,33,6.90
2010,05,20,03,34,6.90
2010,05,20,03,35,6.90
2010,05,20,03,36,6.90
2010,05,20,03,37,6.90
2010,05,20,03,38,6.90
2010,05,20,03,39,6.90
2010,05,20,03,40,6.90
2010,05,20,03,41,6.90
2010,05,20,03,42,6.90
2010,05,20,03,43,6.90
2010,05,20,03,44,6.90
2010,05,20,03,45,6.90
2010,05,20,03,46,6.90
2010,05,20,03,47,6.90
2010,05,20,03,48,6.90
2010,05,20,03,49,6.90
2010,05,20,03,50,6.90
2010,05,20,03,51,6.90
2010,05,20,03,52,6.90
2010,05,20,03,53,6.90
2010,05,20,03,54,6.90
2010,05,20,03,55,6.90
2010,05,20,03,56,6.90
2010,05,20,03,57,6.90
2010,05,20,03,58,6.90
2010,05,20,03,59,6.90
2010,05,20,04,00,6.90
2010,05,20,04,01,6.90
2010,05,20,04,02,6.90
2010,05,20,04,03,6.90
2010,05,20,04,04,6.90
2010,05,20,04,05,6.90
2010,05,20,04,06,6.90
2010,05,20,04,07,6.90
2010,05,20,04,08,6.90
2010,05,20,04,09,6.90
2010,05,20,04,10,7.00
2010,05,20,04,11,6.90
2010,05,20,04,12,6.90
2010,05,20,04,13,6.90
2010,05,20,04,14,6.90
2010,05,20,04,15,6.90
2010,05,20,04,16,6.90
2010,05,20,04,17,6.90
2010,05,20,04,18,6.90
2010,05,20,04,19,6.90
2010,05,20,04,20,6.90
2010,05,20,04,21,6.90
2010,05,20,04,22,6.90
2010,05,20,04,23,6.90
2010,05,20,04,24,6.90
2010,05,20,04,25,6.90
2010,05,20,04,26,6.90
2010,05,20,04,27,6.90
2010,05,20,04,28,6.90
2010,05,20,04,29,6.90
2010,05,20,04,30,6.90
2010,05,20,04,31,6.90
2010,05,20,04,32,6.90
2010,05,20,04,33,6.90
2010,05,20,04,34,6.90
2010,05,20,04,35,6.90
2010,05,20,04,36,6.90
2010,05,20,04,37,6.90
2010,05,20,04,38,6.90
2010,05,20,04,39,6.90
2010,05,20,04,40,6.90
2010,05,20,04,41,6.90
2010,05,20,04,42,6.90
2010,05,20,04,43,6.80
2010,05,20,04,44,6.80
2010,05,20,04,45,6.80
2010,05,20,04,46,6.80
2010,05,20,04,47,6.80
2010,05,20,04,48,6.80
2010,05,20,04,49,6.80
2010,05,20,04,50,6.80
2010,05,20,04,51,6.80
2010,05,20,04,52,6.80
2010,05,20,04,53,6.80
2010,05,20,04,54,6.80
2010,05,20,04,55,6.80
2010,05,20,04,56,6.80
2010,05,20,04,57,6.80
2010,05,20,04,58,6.80
2010,05,20,04,59,6.80
2010,05,20,05,00,6.80
2010,05,20,05,01,6.80
2010,05,20,05,02,6.80
2010,05,20,05,03,6.80
2010,05,20,05,04,6.80
2010,05,20,05,05,6.80
2010,05,20,05,06,6.80
2010,05,20,05,07,6.80
2010,05,20,05,08,6.80
2010,05,20,05,09,6.80
2010,05,20,05,10,6.90
2010,05,20,05,11,6.90
2010,05,20,05,12,6.90
2010,05,20,05,13,6.90
2010,05,20,05,14,7.00
2010,05,20,05,15,7.00
2010,05,20,05,16,7.00
2010,05,20,05,17,7.00
2010,05,20,05,18,6.90
2010,05,20,05,19,6.80
2010,05,20,05,20,6.80
2010,05,20,05,21,6.80
2010,05,20,05,22,6.70
2010,05,20,05,23,6.70
2010,05,20,05,24,6.70
2010,05,20,05,25,6.60
2010,05,20,05,26,6.60
2010,05,20,05,27,6.50
2010,05,20,05,28,6.50
2010,05,20,05,29,6.40
2010,05,20,05,30,6.40
2010,05,20,05,31,6.40
2010,05,20,05,32,6.40
2010,05,20,05,33,6.40
2010,05,20,05,34,6.40
2010,05,20,05,35,6.40
2010,05,20,05,36,6.40
2010,05,20,05,37,6.40
2010,05,20,05,38,6.40
2010,05,20,05,39,6.40
2010,05,20,05,40,6.50
2010,05,20,05,41,6.50
2010,05,20,05,42,6.50
2010,05,20,05,43,6.50
2010,05,20,05,44,6.50
2010,05,20,05,45,6.50
2010,05,20,05,46,6.50
2010,05,20,05,47,6.50
2010,05,20,05,48,6.50
2010,05,20,05,49,6.50
2010,05,20,05,50,6.50
2010,05,20,05,51,6.60
2010,05,20,05,52,6.60
2010,05,20,05,53,6.60
2010,05,20,05,54,6.60
2010,05,20,05,55,6.60
2010,05,20,05,56,6.60
2010,05,20,05,57,6.60
2010,05,20,05,58,6.70
2010,05,20,05,59,6.70
2010,05,20,06,00,6.70
2010,05,20,06,01,6.70
2010,05,20,06,02,6.80
2010,05,20,06,03,6.80
2010,05,20,06,04,6.80
2010,05,20,06,05,6.80
2010,05,20,06,06,6.90
2010,05,20,06,07,6.90
2010,05,20,06,08,6.90
2010,05,20,06,09,6.90
2010,05,20,06,10,6.90
2010,05,20,06,11,6.90
2010,05,20,06,12,6.90
2010,05,20,06,13,6.90
2010,05,20,06,14,6.90
2010,05,20,06,15,6.90
2010,05,20,06,16,6.90
2010,05,20,06,17,6.90
2010,05,20,06,18,6.80
2010,05,20,06,19,6.80
2010,05,20,06,20,6.90
2010,05,20,06,21,6.90
2010,05,20,06,22,6.90
2010,05,20,06,23,6.80
2010,05,20,06,24,6.80
2010,05,20,06,25,6.80
2010,05,20,06,26,6.80
2010,05,20,06,27,6.80
2010,05,20,06,28,6.80
2010,05,20,06,29,6.80
2010,05,20,06,30,6.80
2010,05,20,06,31,6.80
2010,05,20,06,32,6.80
2010,05,20,06,33,6.80
2010,05,20,06,34,6.80
2010,05,20,06,35,6.80
2010,05,20,06,36,6.80
2010,05,20,06,37,6.80
2010,05,20,06,38,6.80
2010,05,20,06,39,6.80
2010,05,20,06,40,6.80
2010,05,20,06,41,6.80
2010,05,20,06,42,6.80
2010,05,20,06,43,6.80
2010,05,20,06,44,6.80
2010,05,20,06,45,6.80
2010,05,20,06,46,6.80
2010,05,20,06,47,6.80
2010,05,20,06,48,6.80
2010,05,20,06,49,6.80
2010,05,20,06,50,6.80
2010,05,20,06,51,6.80
2010,05,20,06,52,6.80
2010,05,20,06,53,6.80
2010,05,20,06,54,6.80
2010,05,20,06,55,6.90
2010,05,20,06,56,6.90
2010,05,20,06,57,6.90
2010,05,20,06,58,6.90
2010,05,20,06,59,6.90
2010,05,20,07,00,6.90
2010,05,20,07,01,6.90
2010,05,20,07,02,6.90
2010,05,20,07,03,6.90
2010,05,20,07,04,6.90
2010,05,20,07,05,7.00
2010,05,20,07,06,7.00
2010,05,20,07,07,7.00
2010,05,20,07,08,7.10
2010,05,20,07,09,7.10
2010,05,20,07,10,7.10
2010,05,20,07,11,7.10
2010,05,20,07,12,7.10
2010,05,20,07,13,7.10
2010,05,20,07,14,7.20
2010,05,20,07,15,7.20
2010,05,20,07,16,7.20
2010,05,20,07,17,7.20
2010,05,20,07,18,7.20
2010,05,20,07,19,7.10
2010,05,20,07,20,7.10
2010,05,20,07,21,7.10
2010,05,20,07,22,7.10
2010,05,20,07,23,7.10
2010,05,20,07,24,7.10
2010,05,20,07,25,7.10
2010,05,20,07,26,7.10
2010,05,20,07,27,7.10
2010,05,20,07,28,7.10
2010,05,20,07,29,7.10
2010,05,20,07,30,7.10
2010,05,20,07,31,7.00
2010,05,20,07,32,7.00
2010,05,20,07,33,7.00
2010,05,20,07,34,7.00
2010,05,20,07,35,7.00
2010,05,20,07,36,7.00
2010,05,20,07,37,7.00
2010,05,20,07,38,7.00
2010,05,20,07,39,7.00
2010,05,20,07,40,7.00
2010,05,20,07,41,7.00
2010,05,20,07,42,7.10
2010,05,20,07,43,7.10
2010,05,20,07,44,7.10
2010,05,20,07,45,7.10
2010,05,20,07,46,7.10
2010,05,20,07,47,7.10
2010,05,20,07,48,7.10
2010,05,20,07,49,7.10
2010,05,20,07,50,7.10
2010,05,20,07,51,7.10
2010,05,20,07,52,7.10
2010,05,20,07,53,7.10
2010,05,20,07,54,7.10
2010,05,20,07,55,7.10
2010,05,20,07,56,7.00
2010,05,20,07,57,7.00
2010,05,20,07,58,7.00
2010,05,20,07,59,7.00
2010,05,20,08,00,6.90
2010,05,20,08,01,6.90
2010,05,20,08,02,6.90
2010,05,20,08,03,6.90
2010,05,20,08,04,6.90
2010,05,20,08,05,6.90
2010,05,20,08,06,6.90
2010,05,20,08,07,6.90
2010,05,20,08,08,6.90
2010,05,20,08,09,7.00
2010,05,20,08,10,7.00
2010,05,20,08,11,7.00
2010,05,20,08,12,7.00
2010,05,20,08,13,7.00
2010,05,20,08,14,7.10
2010,05,20,08,15,7.10
2010,05,20,08,16,7.10
2010,05,20,08,17,7.10
2010,05,20,08,18,7.20
2010,05,20,08,19,7.20
2010,05,20,08,20,7.20
2010,05,20,08,21,7.20
2010,05,20,08,22,7.20
2010,05,20,08,23,7.20
2010,05,20,08,24,7.20
2010,05,20,08,25,7.30
2010,05,20,08,26,7.30
2010,05,20,08,27,7.30
2010,05,20,08,28,7.30
2010,05,20,08,29,7.30
2010,05,20,08,30,7.30
2010,05,20,08,31,7.40
2010,05,20,08,32,7.40
2010,05,20,08,33,7.40
2010,05,20,08,34,7.40
2010,05,20,08,35,7.40
2010,05,20,08,36,7.40
2010,05,20,08,37,7.40
2010,05,20,08,38,7.50
2010,05,20,08,39,7.50
2010,05,20,08,40,7.60
2010,05,20,08,41,7.60
2010,05,20,08,42,7.60
2010,05,20,08,43,7.60
2010,05,20,08,44,7.60
2010,05,20,08,45,7.60
2010,05,20,08,46,7.70
2010,05,20,08,47,7.70
2010,05,20,08,48,7.70
2010,05,20,08,49,7.70
2010,05,20,08,50,7.80
2010,05,20,08,51,7.80
2010,05,20,08,52,7.80
2010,05,20,08,53,7.80
2010,05,20,08,54,7.90
2010,05,20,08,55,7.90
2010,05,20,08,56,7.90
2010,05,20,08,57,7.90
2010,05,20,08,58,8.00
2010,05,20,08,59,8.00
2010,05,20,09,00,8.10
2010,05,20,09,01,8.10
2010,05,20,09,02,8.10
2010,05,20,09,03,8.10
2010,05,20,09,04,8.10
2010,05,20,09,05,8.10
2010,05,20,09,06,8.10
2010,05,20,09,07,8.20
2010,05,20,09,08,8.20
2010,05,20,09,09,8.20
2010,05,20,09,10,8.20
2010,05,20,09,11,8.30
2010,05,20,09,12,8.30
2010,05,20,09,13,8.40
2010,05,20,09,14,8.40
2010,05,20,09,15,8.40
2010,05,20,09,16,8.40
2010,05,20,09,17,8.50
2010,05,20,09,18,8.50
2010,05,20,09,19,8.50
2010,05,20,09,20,8.60
2010,05,20,09,21,8.50
2010,05,20,09,22,8.50
2010,05,20,09,23,8.50
2010,05,20,09,24,8.60
2010,05,20,09,25,8.60
2010,05,20,09,26,8.60
2010,05,20,09,27,8.70
2010,05,20,09,28,8.70
2010,05,20,09,29,8.70
2010,05,20,09,30,8.70
2010,05,20,09,31,8.80
2010,05,20,09,32,8.80
2010,05,20,09,33,8.80
2010,05,20,09,34,8.90
2010,05,20,09,35,8.90
2010,05,20,09,36,8.90
2010,05,20,09,37,8.90
2010,05,20,09,38,9.00
2010,05,20,09,39,9.10
2010,05,20,09,40,9.10
2010,05,20,09,41,9.20
2010,05,20,09,42,9.20
2010,05,20,09,43,9.20
2010,05,20,09,44,9.30
2010,05,20,09,45,9.30
2010,05,20,09,46,9.30
2010,05,20,09,47,9.30
2010,05,20,09,48,9.40
2010,05,20,09,49,9.50
2010,05,20,09,50,9.50
2010,05,20,09,51,9.50
2010,05,20,09,52,9.60
2010,05,20,09,53,9.60
2010,05,20,09,54,9.60
2010,05,20,09,55,9.60
2010,05,20,09,56,9.70
2010,05,20,09,57,9.80
2010,05,20,09,58,9.80
2010,05,20,09,59,9.90
2010,05,20,10,00,9.90
2010,05,20,10,01,10.00
2010,05,20,10,02,10.00
2010,05,20,10,03,10.10
2010,05,20,10,04,10.10
2010,05,20,10,05,10.10
2010,05,20,10,06,10.10
2010,05,20,10,07,10.10
2010,05,20,10,08,10.00
2010,05,20,10,09,10.00
2010,05,20,10,10,10.00
2010,05,20,10,11,10.00
2010,05,20,10,12,10.00
2010,05,20,10,13,9.90
2010,05,20,10,14,10.00
2010,05,20,10,15,10.00
2010,05,20,10,16,10.10
2010,05,20,10,17,10.10
2010,05,20,10,18,10.10
2010,05,20,10,19,10.10
2010,05,20,10,20,10.10
2010,05,20,10,21,10.00
2010,05,20,10,22,10.00
2010,05,20,10,23,10.00
2010,05,20,10,24,10.00
2010,05,20,10,25,10.10
2010,05,20,10,26,10.10
2010,05,20,10,27,10.10
2010,05,20,10,28,10.10
2010,05,20,10,29,10.10
2010,05,20,10,30,10.20
2010,05,20,10,31,10.20
2010,05,20,10,32,10.20
2010,05,20,10,33,10.20
2010,05,20,10,34,10.30
2010,05,20,10,35,10.40
2010,05,20,10,36,10.50
2010,05,20,10,37,10.60
2010,05,20,10,38,10.60
2010,05,20,10,39,10.60
2010,05,20,10,40,10.60
2010,05,20,10,41,10.70
2010,05,20,10,42,10.70
2010,05,20,10,43,10.70
2010,05,20,10,44,10.70
2010,05,20,10,45,10.80
2010,05,20,10,46,10.80
2010,05,20,10,47,10.80
2010,05,20,10,48,10.90
2010,05,20,10,49,10.90
2010,05,20,10,50,10.90
2010,05,20,10,51,10.90
2010,05,20,10,52,10.90
2010,05,20,10,53,11.10
2010,05,20,10,54,11.30
2010,05,20,10,55,11.40
2010,05,20,10,56,11.50
2010,05,20,10,57,11.60
2010,05,20,10,58,11.80
2010,05,20,10,59,11.80
2010,05,20,11,00,11.90
2010,05,20,11,01,12.00
2010,05,20,11,02,12.00
2010,05,20,11,03,12.10
2010,05,20,11,04,12.10
2010,05,20,11,05,12.10
2010,05,20,11,06,12.10
2010,05,20,11,07,12.20
2010,05,20,11,08,12.10
2010,05,20,11,09,12.00
2010,05,20,11,10,11.90
2010,05,20,11,11,11.80
2010,05,20,11,12,11.90
2010,05,20,11,13,11.90
2010,05,20,11,14,11.90
2010,05,20,11,15,11.90
2010,05,20,11,16,11.90
2010,05,20,11,17,11.90
2010,05,20,11,18,11.90
2010,05,20,11,19,12.00
2010,05,20,11,20,12.10
2010,05,20,11,21,12.20
2010,05,20,11,22,12.10
2010,05,20,11,23,12.10
2010,05,20,11,24,12.00
2010,05,20,11,25,11.90
2010,05,20,11,26,11.80
2010,05,20,11,27,11.70
2010,05,20,11,28,11.70
2010,05,20,11,29,11.60
2010,05,20,11,30,11.60
2010,05,20,11,31,11.60
2010,05,20,12,00,10.90
2010,05,20,12,01,11.00
2010,05,20,12,02,11.10
2010,05,20,12,03,11.20
2010,05,20,12,04,11.10
2010,05,20,12,05,11.00
2010,05,20,12,06,10.90
2010,05,20,12,07,10.80
2010,05,20,12,08,10.80
2010,05,20,12,09,10.80
2010,05,20,12,10,10.80
2010,05,20,12,11,10.90
2010,05,20,12,12,11.00
2010,05,20,12,13,11.10
2010,05,20,12,14,11.30
2010,05,20,12,15,11.50
2010,05,20,12,16,11.60
2010,05,20,12,17,11.70
2010,05,20,12,18,11.80
2010,05,20,12,19,12.00
2010,05,20,12,20,12.10
2010,05,20,12,21,12.10
2010,05,20,12,22,12.10
2010,05,20,12,23,12.10
2010,05,20,12,24,12.20
2010,05,20,12,25,12.20
2010,05,20,12,26,12.20
2010,05,20,12,27,12.30
2010,05,20,12,28,12.30
2010,05,20,12,29,12.40
2010,05,20,12,30,12.50
2010,05,20,12,31,12.50
2010,05,20,12,32,12.40
2010,05,20,12,33,12.40
2010,05,20,12,34,12.40
2010,05,20,12,35,12.40
2010,05,20,12,36,12.30
2010,05,20,12,37,12.20
2010,05,20,12,38,12.00
2010,05,20,12,39,11.90
2010,05,20,12,40,11.90
2010,05,20,12,41,12.00
2010,05,20,12,42,12.00
2010,05,20,12,43,11.90
2010,05,20,12,44,11.90
2010,05,20,12,45,12.00
2010,05,20,12,46,12.20
2010,05,20,12,47,12.30
2010,05,20,12,48,12.40
2010,05,20,12,49,12.40
2010,05,20,12,50,12.50
2010,05,20,12,51,12.50
2010,05,20,12,52,12.40
2010,05,20,12,53,12.30
2010,05,20,12,54,12.20
2010,05,20,12,55,12.20
2010,05,20,12,56,12.10
2010,05,20,12,57,12.10
2010,05,20,12,58,12.00
2010,05,20,12,59,11.90
2010,05,20,13,00,12.00
2010,05,20,13,01,12.10
2010,05,20,13,02,12.20
2010,05,20,13,03,12.30
2010,05,20,13,04,12.30
2010,05,20,13,05,12.20
2010,05,20,13,06,12.10
2010,05,20,13,07,11.90
2010,05,20,13,08,11.80
2010,05,20,13,09,11.80
2010,05,20,13,10,11.70
2010,05,20,13,11,11.50
2010,05,20,13,12,11.30
2010,05,20,13,13,11.20
2010,05,20,13,14,11.20
2010,05,20,13,15,11.10
2010,05,20,13,16,11.00
2010,05,20,13,17,10.90
2010,05,20,13,18,10.80
2010,05,20,13,19,10.80
2010,05,20,13,20,10.90
2010,05,20,13,21,11.00
2010,05,20,13,22,11.10
2010,05,20,13,23,11.30
2010,05,20,13,24,11.50
2010,05,20,13,25,11.70
2010,05,20,13,26,11.80
2010,05,20,13,27,11.90
2010,05,20,13,28,11.90
2010,05,20,13,29,12.00
2010,05,20,13,30,12.20
2010,05,20,13,31,12.30
2010,05,20,13,32,12.30
2010,05,20,13,33,12.40
2010,05,20,13,34,12.30
2010,05,20,13,35,12.10
2010,05,20,13,36,12.00
2010,05,20,13,37,11.90
2010,05,20,13,38,11.90
2010,05,20,13,39,11.90
2010,05,20,13,40,11.90
2010,05,20,13,41,11.90
2010,05,20,13,42,11.80
2010,05,20,13,43,11.80
2010,05,20,13,44,11.90
2010,05,20,13,45,11.80
2010,05,20,13,46,11.80
2010,05,20,13,47,11.80
2010,05,20,13,48,11.90
2010,05,20,13,49,12.00
2010,05,20,13,50,12.10
2010,05,20,13,51,12.10
2010,05,20,13,52,12.10
2010,05,20,13,53,12.10
2010,05,20,13,54,12.10
2010,05,20,13,55,12.10
2010,05,20,13,56,12.20
2010,05,20,13,57,12.40
2010,05,20,13,58,12.50
2010,05,20,13,59,12.50
2010,05,20,14,00,12.60
2010,05,20,14,01,12.70
2010,05,20,14,02,12.80
2010,05,20,14,03,12.90
2010,05,20,14,04,13.10
2010,05,20,14,05,13.20
2010,05,20,14,06,13.30
2010,05,20,14,07,13.30
2010,05,20,14,08,13.20
2010,05,20,14,09,13.20
2010,05,20,14,10,13.10
2010,05,20,14,11,12.90
2010,05,20,14,12,12.80
2010,05,20,14,13,12.70
2010,05,20,14,14,12.60
2010,05,20,14,15,12.60
2010,05,20,14,16,12.80
2010,05,20,14,17,13.00
2010,05,20,14,18,13.10
2010,05,20,14,19,13.30
2010,05,20,14,20,13.40
2010,05,20,14,21,13.60
2010,05,20,14,22,13.70
2010,05,20,14,23,13.70
2010,05,20,14,24,13.60
2010,05,20,14,25,13.40
2010,05,20,14,26,13.10
2010,05,20,14,27,12.90
2010,05,20,14,28,12.80
2010,05,20,14,29,12.80
2010,05,20,14,30,12.70
2010,05,20,14,31,12.70
2010,05,20,14,32,12.70
2010,05,20,14,33,12.70
2010,05,20,14,34,12.80
2010,05,20,14,35,12.90
2010,05,20,14,36,13.00
2010,05,20,14,37,13.00
2010,05,20,14,38,13.00
2010,05,20,14,39,13.00
2010,05,20,14,40,13.10
2010,05,20,14,41,13.10
2010,05,20,14,42,13.30
2010,05,20,14,43,13.30
2010,05,20,14,44,13.30
2010,05,20,14,45,13.30
2010,05,20,14,46,13.20
2010,05,20,14,47,13.20
2010,05,20,14,48,13.10
2010,05,20,14,49,13.00
2010,05,20,14,50,12.80
2010,05,20,14,51,12.60
2010,05,20,14,52,12.40
2010,05,20,14,53,12.30
2010,05,20,14,54,12.30
2010,05,20,14,55,12.20
2010,05,20,14,56,12.20
2010,05,20,14,57,12.10
2010,05,20,14,58,12.00
2010,05,20,14,59,11.90
2010,05,20,15,00,11.90
2010,05,20,15,01,11.90
2010,05,20,15,02,11.90
2010,05,20,15,03,12.00
2010,05,20,15,04,12.00
2010,05,20,15,05,11.90
2010,05,20,15,06,11.80
2010,05,20,15,07,11.60
2010,05,20,15,08,11.50
2010,05,20,15,09,11.30
2010,05,20,15,10,11.10
2010,05,20,15,11,10.90
2010,05,20,15,12,10.70
2010,05,20,15,13,10.50
2010,05,20,15,14,10.30
2010,05,20,15,15,10.20
2010,05,20,15,16,10.10
2010,05,20,15,17,10.00
2010,05,20,15,18,9.90
2010,05,20,15,19,9.90
2010,05,20,15,20,9.90
2010,05,20,15,21,9.90
2010,05,20,15,22,9.90
2010,05,20,15,23,10.00
2010,05,20,15,24,10.10
2010,05,20,15,25,10.20
2010,05,20,15,26,10.30
2010,05,20,15,27,10.50
2010,05,20,15,28,10.70
2010,05,20,15,29,10.90
2010,05,20,15,30,11.10
2010,05,20,15,31,11.30
2010,05,20,15,32,11.40
2010,05,20,15,33,11.50
2010,05,20,15,34,11.60
2010,05,20,15,35,11.70
2010,05,20,15,36,11.80
2010,05,20,15,37,11.80
2010,05,20,15,38,11.80
2010,05,20,15,39,11.80
2010,05,20,15,40,11.70
2010,05,20,15,41,11.60
2010,05,20,15,42,11.50
2010,05,20,15,43,11.40
2010,05,20,15,44,11.40
2010,05,20,15,45,11.30
2010,05,20,15,46,11.00
2010,05,20,15,47,10.70
2010,05,20,15,48,10.40
2010,05,20,15,49,10.20
2010,05,20,15,50,10.10
2010,05,20,15,51,9.90
2010,05,20,15,52,9.80
2010,05,20,15,53,9.60
2010,05,20,15,54,9.50
2010,05,20,15,55,9.40
2010,05,20,15,56,9.30
2010,05,20,15,57,9.20
2010,05,20,15,58,9.20
2010,05,20,15,59,9.10
2010,05,20,16,00,9.10
2010,05,20,16,01,9.10
2010,05,20,16,02,9.00
2010,05,20,16,03,9.00
2010,05,20,16,04,9.10
2010,05,20,16,05,9.10
2010,05,20,16,06,9.10
2010,05,20,16,07,9.10
2010,05,20,16,08,9.00
2010,05,20,16,09,9.00
2010,05,20,16,10,9.00
2010,05,20,16,11,9.00
2010,05,20,16,12,9.10
2010,05,20,16,13,9.10
2010,05,20,16,14,9.10
2010,05,20,16,15,9.20
2010,05,20,16,16,9.20
2010,05,20,16,17,9.30
2010,05,20,16,18,9.30
2010,05,20,16,19,9.40
2010,05,20,16,20,9.40
2010,05,20,16,21,9.40
2010,05,20,16,22,9.40
2010,05,20,16,23,9.40
2010,05,20,16,24,9.50
2010,05,20,16,25,9.50
2010,05,20,16,26,9.60
2010,05,20,16,27,9.60
2010,05,20,16,28,9.70
2010,05,20,16,29,9.70
2010,05,20,16,30,9.80
2010,05,20,16,31,9.80
2010,05,20,16,32,9.90
2010,05,20,16,33,10.00
2010,05,20,16,34,10.00
2010,05,20,16,35,10.10
2010,05,20,16,36,10.20
2010,05,20,16,37,10.20
2010,05,20,16,38,10.30
2010,05,20,16,39,10.30
2010,05,20,16,40,10.40
2010,05,20,16,41,10.40
2010,05,20,16,42,10.50
2010,05,20,16,43,10.50
2010,05,20,16,44,10.60
2010,05,20,16,45,10.60
2010,05,20,16,46,10.70
2010,05,20,16,47,10.70
2010,05,20,16,48,10.80
2010,05,20,16,49,10.80
2010,05,20,16,50,10.90
2010,05,20,16,51,11.00
2010,05,20,16,52,11.20
2010,05,20,16,53,11.30
2010,05,20,16,54,11.30
2010,05,20,16,55,11.40
2010,05,20,16,56,11.50
2010,05,20,16,57,11.50
2010,05,20,16,58,11.50
2010,05,20,16,59,11.50
2010,05,20,17,00,11.50
2010,05,20,17,01,11.60
2010,05,20,17,02,11.60
2010,05,20,17,03,11.70
2010,05,20,17,04,11.80
2010,05,20,17,05,11.90
2010,05,20,17,06,11.90
2010,05,20,17,07,12.00
2010,05,20,17,08,12.10
2010,05,20,17,09,12.10
2010,05,20,17,10,12.20
2010,05,20,17,11,12.30
2010,05,20,17,12,12.30
2010,05,20,17,13,12.30
2010,05,20,17,14,12.40
2010,05,20,17,15,12.40
2010,05,20,17,16,12.50
2010,05,20,17,17,12.60
2010,05,20,17,18,12.60
2010,05,20,17,19,12.60
2010,05,20,17,20,12.60
2010,05,20,17,21,12.60
2010,05,20,17,22,12.50
2010,05,20,17,23,12.50
2010,05,20,17,24,12.60
2010,05,20,17,25,12.60
2010,05,20,17,26,12.70
2010,05,20,17,27,12.70
2010,05,20,17,28,12.70
2010,05,20,17,29,12.70
2010,05,20,17,30,12.70
2010,05,20,17,31,12.70
2010,05,20,17,32,12.80
2010,05,20,17,33,12.80
2010,05,20,17,34,12.70
2010,05,20,17,35,12.60
2010,05,20,17,36,12.50
2010,05,20,17,37,12.50
2010,05,20,17,38,12.40
2010,05,20,17,39,12.30
2010,05,20,17,40,12.30
2010,05,20,17,41,12.20
2010,05,20,17,42,12.20
2010,05,20,17,43,12.20
2010,05,20,17,44,12.10
2010,05,20,17,45,12.10
2010,05,20,17,46,12.10
2010,05,20,17,47,12.10
2010,05,20,17,48,12.10
2010,05,20,17,49,12.10
2010,05,20,17,50,12.20
2010,05,20,17,51,12.20
2010,05,20,17,52,12.30
2010,05,20,17,53,12.30
2010,05,20,17,54,12.40
2010,05,20,17,55,12.50
2010,05,20,17,56,12.50
2010,05,20,17,57,12.60
2010,05,20,17,58,12.60
2010,05,20,17,59,12.60
2010,05,20,18,00,12.60
2010,05,20,18,01,12.60
2010,05,20,18,02,12.50
2010,05,20,18,03,12.40
2010,05,20,18,04,12.40
2010,05,20,18,05,12.30
2010,05,20,18,06,12.20
2010,05,20,18,07,12.10
2010,05,20,18,08,12.10
2010,05,20,18,09,12.00
2010,05,20,18,10,11.90
2010,05,20,18,11,11.90
2010,05,20,18,12,12.00
2010,05,20,18,13,12.10
2010,05,20,18,14,12.10
2010,05,20,18,15,12.20